Amarillo, TX

8:01 PM CDT on September 20, 2019 (GMT -0500)
Amarillo International

Weather History for KAMA - May, 2019

Change the Weather History Date:

Saturday, May 18, 2019

  Actual Average Record
Temperature  
Mean Temperature 64 °F 66 °F  
Max Temperature 77 °F 80 °F 102 °F (1996)
Min Temperature 50 °F 53 °F 38 °F (1971)
Degree Days  
Heating Degree Days 1 2  
Month to date heating degree days 90 64  
Since 1 July heating degree days 4073 4152  
Cooling Degree Days 0 3  
Month to date cooling degree days 28 41  
Year to date cooling degree days 44 62  
Growing Degree Days 14 (Base 50)    
Moisture  
Dew Point 30 °F    
Average Humidity 33    
Maximum Humidity 54    
Minimum Humidity 11    
Precipitation  
Precipitation 0.00 in 0.08 in 1.71 in (1936)
Month to date precipitation 1.35 1.08  
Year to date precipitation 5.44 5.15  
Snow  
Snow 0.00 in 0.00 in 0.00 in ()
Month to date snowfall 0.0 0.2  
Since 1 July snowfall 8.1 17.8  
Snow Depth 0.00 in    
Sea Level Pressure  
Sea Level Pressure 29.56 in    
Wind  
Wind Speed 14 mph (West)    
Max Wind Speed 31 mph    
Max Gust Speed 38 mph    
Visibility 10 miles    
Events      
T = Trace of Precipitation, MM = Missing Value Source: NWS Daily Summary

Daily Weather History Graph

Daily Weather History Graph

Search for Another Location

Airport or City:

Astronomy

May. 18, 2019 Rise Set
Actual Time 6:40 AM CDT 8:46 PM CDT
Civil Twilight 6:12 AM CDT 9:14 PM CDT
Nautical Twilight 5:37 AM CDT 9:49 PM CDT
Astronomical Twilight 5:00 AM CDT 10:26 PM CDT
Moon 8:45 PM CDT (5/18) 6:45 AM CDT (5/18)
Length of Visible Light 15h 02m
Length of Day
14h 05m
Full, 100% of the Moon is Illuminated
May 18
Full
May 18
Full
May 26
Last Quarter
Jun 3
New
Jun 10
First Quarter

Hourly Weather History & Observations

Time (CDT) Temp. Dew Point Humidity Pressure Visibility Wind Dir Wind Speed Gust Speed Precip Events Conditions
12:53 AM 61.0 °F 36.0 °F 39% 29.54 in 10.0 mi SSW 10.4 mph - N/A   Clear
1:53 AM 59.0 °F 35.1 °F 41% 29.55 in 10.0 mi SSW 10.4 mph - N/A   Clear
2:53 AM 57.9 °F 34.0 °F 41% 29.53 in 10.0 mi WSW 11.5 mph - N/A   Clear
3:53 AM 52.0 °F 36.0 °F 54% 29.54 in 10.0 mi SSW 10.4 mph - N/A   Clear
4:53 AM 55.9 °F 32.0 °F 40% 29.52 in 10.0 mi SW 11.5 mph - N/A   Clear
5:53 AM 55.0 °F 32.0 °F 42% 29.54 in 10.0 mi WNW 9.2 mph - N/A   Clear
6:53 AM 53.1 °F 34.0 °F 48% 29.54 in 10.0 mi West 6.9 mph - N/A   Clear
7:53 AM 55.0 °F 36.0 °F 49% 29.57 in 10.0 mi NW 8.1 mph - N/A   Clear
8:53 AM 57.0 °F 37.0 °F 47% 29.58 in 10.0 mi WNW 13.8 mph - N/A   Clear
9:53 AM 61.0 °F 42.1 °F 50% 29.59 in 10.0 mi NW 10.4 mph - N/A   Clear
10:53 AM 66.9 °F 42.1 °F 40% 29.55 in 10.0 mi WNW 11.5 mph - N/A   Clear
11:53 AM 71.1 °F 37.9 °F 30% 29.54 in 10.0 mi WSW 12.7 mph 19.6 mph N/A   Clear
12:53 PM 75.0 °F 21.9 °F 14% 29.52 in 10.0 mi West 20.7 mph 29.9 mph N/A   Clear
1:53 PM 75.0 °F 21.9 °F 14% 29.51 in 10.0 mi WSW 26.5 mph 36.8 mph N/A   Clear
2:53 PM 77.0 °F 26.1 °F 15% 29.51 in 10.0 mi WSW 19.6 mph 33.4 mph N/A   Clear
3:53 PM 75.9 °F 21.9 °F 13% 29.52 in 10.0 mi West 20.7 mph 38.0 mph N/A   Clear
4:53 PM 75.9 °F 21.9 °F 13% 29.52 in 10.0 mi WSW 24.2 mph 32.2 mph N/A   Clear
5:53 PM 75.0 °F 19.0 °F 12% 29.53 in 10.0 mi West 23.0 mph 33.4 mph N/A   Clear
6:53 PM 73.9 °F 21.9 °F 14% 29.54 in 10.0 mi WSW 18.4 mph 31.1 mph N/A   Clear
7:53 PM 73.0 °F 15.1 °F 11% 29.55 in 10.0 mi West 18.4 mph 32.2 mph N/A   Clear
8:53 PM 68.0 °F 24.1 °F 19% 29.61 in 10.0 mi NW 17.3 mph 27.6 mph N/A   Clear
9:53 PM 57.9 °F 28.9 °F 33% 29.66 in 10.0 mi WNW 9.2 mph - N/A   Clear
10:53 PM 57.9 °F 30.0 °F 35% 29.69 in 10.0 mi NW 8.1 mph - N/A   Clear
11:53 PM 53.1 °F 32.0 °F 45% 29.74 in 10.0 mi NNW 8.1 mph - N/A   Clear